Flag for Mexico Weather past 2 weeks in Puerto Vallarta, Jalisco, Mexico

77 °F

High level clouds.

Feels Like: 78 °F
Forecast: 76 / 89 °F
Wind: 5 mph from Northeast

Location: Puerto Vallarta / Lic

Current Time: Nov 25, 2015 at 10:31:53 AM

Latest Report: Nov 25, 2015 at 8:45 AM

Visibility: 8 mi

Pressure: 29.85 "Hg

Humidity: 89%

Dew point: 73 °F

Location of Puerto VallartaLocation

Historic Weather in Puerto Vallarta — Graph


Puerto Vallarta temperature yesterday

Maximum temperature yesterday: 90 °F (at 12:46 PM)
Minimum temperature yesterday: 73 °F (at 5:46 AM)
Average temperature yesterday: 81 °F

Past Weeks' High & Low Weather Summary

High90 °F (Nov 13, 1:52 PM)100% (Nov 11, 4:48 AM)30.13 "Hg (Nov 11, 4:48 AM)
Low68 °F (Nov 12, 6:45 AM)41% (Nov 20, 2:52 PM)29.70 "Hg (Nov 18, 2:50 PM)
Average80 °F80%29.81 "Hg
* Reported Nov 10 8:49 AM — Nov 25 8:45 AM, Puerto Vallarta, Weather by CustomWeather, © 2015

Note: Actual official high and low records may vary slightly from our data, if they occured in-between our weather recording intervals... More about our weather records


Puerto Vallarta weather history for previous 24 hours

Time TempWeatherWind HumidityBarometerVisibility
8:45 AM
Wed, Nov 25
77 °FHigh level clouds.5 mph89%29.85 "Hg8 mi
7:45 AM75 °FHigh level clouds.6 mph94%29.84 "Hg8 mi
6:46 AM73 °FPartly cloudy.5 mph100%29.83 "Hg10 mi
5:51 AM75 °FPassing clouds.5 mph94%29.81 "Hg10 mi
4:52 AM75 °FPassing clouds.2 mph94%29.82 "Hg10 mi
3:47 AM75 °FPassing clouds.3 mph94%29.81 "Hg10 mi
2:52 AM75 °FPassing clouds.5 mph100%29.81 "Hg10 mi
12:46 AM77 °FPassing clouds.No wind94%29.82 "Hg10 mi
11:48 PM
Tue, Nov 24
77 °FPassing clouds.2 mph94%29.83 "Hg10 mi
10:47 PM77 °FClear.2 mph94%29.84 "Hg10 mi
9:45 PM79 °FPassing clouds.3 mph94%29.83 "Hg10 mi
8:50 PM79 °FPassing clouds.No wind94%29.81 "Hg10 mi
7:49 PM81 °FPassing clouds.No wind89%29.81 "Hg10 mi
6:47 PM82 °FPassing clouds.5 mph84%29.79 "Hg10 mi
4:47 PM84 °FScattered clouds.8 mph79%29.77 "Hg10 mi
3:47 PM86 °FPartly sunny.10 mph75%29.78 "Hg10 mi
2:49 PM86 °FPartly sunny.9 mph75%29.78 "Hg10 mi
1:46 PM88 °FHigh level clouds.12 mph62%29.80 "Hg12 mi
12:46 PM90 °FHigh level clouds.8 mph59%29.83 "Hg12 mi
11:47 AM88 °FHigh level clouds.5 mph59%29.85 "Hg12 mi
10:51 AM84 °FHigh level clouds.7 mph70%29.87 "Hg12 mi
Weather by CustomWeather, © 2015

See weather overviewHow to use our weather pages